星链-6141 (STARLINK-6141 )

导读

STARLINK-6141是美国SpaceX公司星链(Starlink)星座的成员卫星,于2023年6月23日发射。星链计划旨在近地轨道构建全球卫星互联网,为地面基础设施匮乏区域提供高速低延迟网络,支持偏远地区联网、应急通信等场景。STARLINK-6141入轨后承担宽带接入服务,助力星链实现全球无缝覆盖的网络布局。

Basic Information
目录编号:
57112
目录名称:
STARLINK-6141
国际标识:
2023-090M
轨道中心:
EARTH
卫星名称:
星链-6141
卫星全名:
星链-6141 (STARLINK-6141 )
卫星状态:
在轨 (已飞行1169 天)
发射日期:
2023-06-23 UTC
国别 :
美国 (US)
星等 :
--
Orbit Information
数据来源 国际轨道数据
星历时间: 2026-09-04T02:03:42+0800
15小时前
查看轨道信息
半长轴: 6861.245km
偏心率: 0.0000747
轨道倾角: 43.004°
近地点辐角 294.556°
升交点赤经 356.054°
平近点角 65.521°
近地点: 482.595km
远地点: 483.621km
周期: 94.268分钟
每日圈数: 15.275604
Detailed Information
固有亮度:
5
最大亮度:
2.4
卫星平台:
Starlink v1.5
覆盖范围:
全球
运营商:
太空探索技术公司
运营商所在国:
美国
制造商(研发单位):
太空探索技术公司
制造商所在国:
美国
使用方式:
暂无
Satellite Introduction
星链(Starlink)计划是由太空探索技术公司(SpaceX)提出的一个巨型低轨卫星互联网星座项目,计划在2019年至2024年间在太空搭建由约1.2万颗卫星组成的“星链”网络,其中1584颗将部署在地球上空550千米处的近地轨道,并从2020年开始工作。该卫星仍在工作。
2D Orbit Map
3D Orbit Map
Orbit Altitude Analysis Chart
Orbit Inclination Analysis Chart
Orbit Comprehensive Analysis Chart
View Comprehensive Chart
Conjunction Data List
Event ID Objects TCA Miss Dist (km) Collision Risk Probability Collision Risk Index (CRI) Action
CDM_260903-165405-711206-647922
2026-09-03T
16:54:28+0000
0.266 km
中距离
2.264602E-4 高风险 0.82
CDM_260905-125005-711206-647921
2026-09-05T
12:50:48+0000
0.275 km
中距离
2.117871E-4 高风险 0.82
CDM_260906-120405-711206-762721
2026-09-06T
12:04:53+0000
0.710 km
远距离
6.235937E-5 中风险 0.71
CDM_260906-105105-711206-732521
2026-09-06T
10:51:54+0000
0.977 km
远距离
1.153252E-5 中风险 0.56
CDM_260903-143305-711206-647922
2026-09-03T
14:33:14+0000
0.811 km
远距离
1.119796E-5 中风险 0.56
CDM_260905-102905-711206-647921
2026-09-05T
10:29:35+0000
0.855 km
远距离
9.353911E-6 低风险 0.54
CDM_260906-133905-711206-762721
2026-09-06T
13:39:02+0000
1.302 km
极远距离
8.147388E-6 低风险 0.53
CDM_260903-164305-653005-711221
2026-09-03T
16:43:04+0000
1.628 km
极远距离
3.332317E-6 低风险 0.45
CDM_260906-034805-711206-732521
2026-09-06T
03:48:12+0000
1.482 km
极远距离
2.857608E-6 低风险 0.44
CDM_260906-103005-711206-762721
2026-09-06T
10:30:44+0000
2.034 km
极远距离
2.12475E-6 低风险 0.42